Theta_e
307 307 307 308 309 310 310 311 311 312 312 312 312 312 312 312 313 314 314 314 315 316 318 320 323 322 324 325 327 328 329 331 331 331 330 329 329 330 331 328 327 320 318
307 307 308 308 309 310 310 310 310 310 311 310 310 310 309 309 309 309 310 312 312 313 313 313 314 315 317 318 319 322 324 325 327 329 330 329 329 328 328 326 322 319 317
306 307 307 307 308 309 309 309 309 310 310 309 309 308 308 308 307 306 306 307 308 309 310 310 311 311 311 312 313 315 316 321 322 325 328 327 326 325 323 320 318 316 307
310 307 306 307 309 309 309 309 310 309 309 308 308 307 306 304 303 302 303 303 304 305 306 306 307 308 308 309 310 312 313 315 317 320 322 325 324 324 320 319 315 311 304
313 308 305 306 308 309 309 309 309 308 308 307 306 306 305 303 302 301 301 302 302 303 303 304 305 307 307 307 307 309 311 313 315 317 319 321 319 314 314 314 312 307 307
314 309 306 304 306 309 309 309 308 308 306 304 306 306 304 303 302 301 300 300 300 301 302 302 304 305 306 306 306 307 309 311 314 315 318 317 314 310 310 309 308 309 307
314 310 307 306 307 309 309 308 307 305 304 304 304 304 305 303 302 301 301 301 302 302 302 302 302 304 305 305 304 307 308 310 311 311 311 309 308 308 308 308 307 307 306
314 311 310 306 306 309 308 307 306 305 304 303 304 304 306 305 303 301 301 301 302 303 303 303 302 303 304 304 305 305 306 308 308 308 308 307 307 307 307 306 305 304 303
314 313 312 307 308 308 307 307 306 305 303 303 304 305 305 306 304 302 302 301 302 303 302 302 302 302 304 302 303 305 305 305 306 307 306 306 305 304 303 304 304 304 305
314 314 311 306 307 307 306 306 305 304 303 303 304 304 304 304 304 303 302 301 301 301 302 303 302 301 301 301 302 302 301 303 305 304 304 304 304 304 305 305 307 306 306
315 313 309 307 307 308 306 305 304 304 303 304 303 303 303 304 305 304 302 301 300 302 302 303 303 304 301 302 303 302 302 305 304 304 305 307 306 306 307 307 307 306 306
315 312 309 306 308 306 306 304 303 302 302 303 303 303 302 302 304 303 302 301 300 302 302 302 301 303 304 302 302 303 303 304 304 305 306 307 308 305 306 305 305 306 306
314 311 307 306 307 306 306 303 302 302 303 304 304 304 303 303 302 302 301 301 301 301 301 301 302 303 303 304 304 306 305 304 304 304 305 304 305 307 309 308 306 306 305
312 308 307 306 307 306 306 305 303 303 303 304 304 303 302 301 301 301 301 301 301 301 303 302 303 302 303 304 306 308 307 305 305 306 305 303 302 302 303 303 303 301 302
312 308 306 307 306 306 306 306 306 305 305 305 304 304 304 302 302 301 302 303 304 304 305 305 306 304 305 305 305 306 306 305 305 304 303 300 299 298 297 297 299 301 303
312 310 309 306 306 307 306 306 306 305 305 305 305 304 305 306 307 306 305 305 305 305 306 307 306 306 306 305 305 307 308 308 307 305 303 303 304 303 304 303 303 304 305
313 312 311 308 306 306 306 306 305 306 305 305 305 305 306 306 306 306 307 307 305 305 306 307 307 307 305 305 306 307 306 306 305 304 304 304 304 304 304 304 304 304 304
315 313 312 311 308 307 307 308 308 307 306 306 307 307 307 307 307 307 307 307 307 307 307 307 306 305 304 305 304 305 306 304 304 304 304 304 305 306 306 305 305 305 306
316 314 314 313 310 309 307 309 309 309 309 309 309 309 308 308 309 308 307 308 307 307 307 307 306 305 303 302 300 301 303 303 303 304 304 304 305 305 306 306 307 307 307
316 316 316 315 312 310 310 308 309 310 310 309 309 309 309 310 309 309 308 306 306 305 305 304 303 303 303 302 300 300 301 302 301 301 303 304 304 304 305 306 308 308 307
315 316 316 315 314 311 310 308 309 310 310 310 308 309 309 310 310 309 309 308 309 307 307 306 306 305 305 305 305 302 302 304 305 307 308 308 308 308 307 307 308 307 306
315 314 315 315 315 313 311 310 309 309 309 310 310 309 309 309 309 310 310 310 310 309 309 309 309 309 309 308 306 306 304 303 306 307 308 308 307 307 307 307 307 306 302
314 314 312 313 311 311 311 311 310 310 310 310 310 311 311 311 311 311 310 309 310 310 310 310 309 310 310 310 310 308 308 307 307 306 305 306 307 307 307 306 304 300 302
302 302 303 304 305 309 309 310 310 310 311 311 311 310 310 310 311 311 311 311 311 311 310 310 310 310 310 310 310 310 310 308 308 309 308 308 308 307 306 303 301 303 301
299 299 300 300 300 300 300 300 301 300 301 304 306 308 308 310 310 311 311 310 310 310 311 311 310 310 310 310 310 311 310 309 309 309 309 307 306 305 303 302 303 299 294
293 294 294 295 295 295 295 296 296 296 296 298 299 300 301 305 307 308 308 310 311 311 311 311 310 310 310 310 310 310 309 309 309 308 307 305 301 301 302 300 296 293 292
Wind_Speed
8 5 4 4 5 6 7 9 10 11 12 13 14 14 13 13 14 16 18 19 20 22 24 27 30 29 31 33 37 33 31 35 40 44 48 50 45 47 52 55 55 45 39
8 6 5 5 5 6 7 9 10 11 13 14 15 17 18 18 16 15 17 20 22 22 21 21 21 23 25 27 29 33 35 32 30 38 41 39 47 49 50 59 57 45 40
8 10 7 6 6 5 6 7 8 10 12 15 17 18 19 19 17 16 15 14 16 17 18 19 19 18 19 20 22 25 29 32 35 33 33 33 34 44 46 49 48 45 35
10 11 10 8 6 5 5 6 7 9 12 14 15 16 18 18 17 17 16 13 12 12 13 12 12 11 12 18 22 25 24 25 27 34 34 34 39 42 46 51 47 40 36
10 9 10 11 8 7 6 7 9 10 11 12 12 13 13 14 16 18 13 11 12 14 13 11 11 9 7 10 19 25 23 23 27 32 35 33 35 40 47 49 46 37 29
12 11 13 13 11 8 8 9 12 12 11 10 10 11 10 11 13 16 12 11 11 14 18 19 21 20 15 13 16 18 19 19 28 28 33 33 36 40 44 47 45 43 34
16 12 13 14 13 9 9 10 11 12 12 11 9 11 12 11 11 10 9 11 13 12 11 12 11 14 18 12 13 12 7 13 21 24 26 29 36 37 42 42 35 32 26
20 16 14 14 13 10 9 10 9 12 13 11 10 11 13 11 9 6 10 9 10 12 13 10 13 12 4 4 4 9 7 12 11 13 22 23 23 24 22 22 17 14 19
23 19 15 14 12 10 9 9 11 12 13 9 7 9 11 13 11 10 8 7 9 10 10 13 9 5 12 7 6 4 4 5 8 9 10 13 21 24 25 23 23 24 21
26 20 16 15 15 12 9 9 11 11 8 5 7 11 12 11 11 10 10 8 9 9 4 10 12 11 6 10 9 10 9 12 17 21 23 19 16 19 17 15 12 10 10
22 21 20 19 18 14 11 10 9 8 6 4 7 12 14 10 12 13 10 8 11 4 2 6 8 9 9 10 10 9 6 6 9 10 11 4 7 9 8 7 5 3 5
23 25 22 20 21 17 13 10 7 6 4 2 3 6 6 6 11 10 12 10 9 6 2 3 4 5 2 4 3 6 8 6 7 7 6 4 4 2 9 5 6 8 11
27 26 22 22 23 19 17 16 12 10 6 5 5 6 4 3 5 9 8 9 11 10 7 8 6 5 2 3 6 6 7 8 7 5 3 4 4 6 7 9 10 11 15
25 24 22 24 23 22 20 21 20 18 12 10 10 6 3 3 6 9 10 9 7 6 5 7 13 15 11 9 6 6 8 10 11 11 9 7 8 10 13 14 15 13 15
24 21 20 23 24 23 23 21 21 20 16 13 13 11 12 12 9 9 9 11 11 9 11 14 13 10 10 10 11 10 9 11 13 13 12 8 9 10 10 9 11 10 13
29 22 20 25 25 24 23 21 21 20 18 15 15 15 15 13 8 10 15 19 18 15 18 18 16 15 14 11 8 6 7 8 9 8 5 4 3 3 5 8 11 12 15
34 28 25 26 27 27 24 22 21 21 21 20 20 20 18 17 15 14 14 16 19 20 24 24 22 19 15 12 11 12 10 8 8 7 7 8 10 12 14 16 18 21 24
38 35 31 25 27 29 28 24 22 23 22 20 19 20 19 19 17 16 16 19 21 22 23 23 22 20 18 17 17 17 16 16 15 13 12 12 13 15 19 21 22 24 25
30 39 37 30 29 29 27 27 25 27 25 22 22 24 22 21 21 22 24 27 26 28 28 28 27 24 22 20 19 19 19 19 20 21 20 19 19 20 21 23 21 23 25
28 30 35 32 32 32 29 30 30 32 30 26 26 25 22 22 25 25 27 31 31 31 32 30 29 27 23 21 21 20 20 20 20 21 23 24 26 27 26 25 26 26 26
27 31 27 32 36 31 28 31 34 35 33 30 30 28 27 26 25 25 27 28 28 27 29 32 31 27 24 23 22 22 22 21 20 20 22 24 24 27 27 27 26 25 26
28 29 30 33 36 38 33 33 35 37 37 37 35 32 30 31 31 30 31 31 31 30 29 30 32 32 30 26 23 23 23 26 28 28 28 27 27 28 28 29 28 27 23
25 29 30 30 28 34 32 29 32 33 33 34 34 35 36 36 37 36 35 35 34 34 34 35 34 35 35 34 32 29 30 29 28 27 28 30 30 29 29 27 24 21 26
15 15 13 11 13 20 21 26 24 27 29 29 30 28 29 32 36 36 36 36 38 38 37 34 35 35 34 35 34 34 34 30 29 29 28 29 29 26 25 22 20 25 26
19 18 16 14 9 7 5 7 5 8 7 12 17 26 29 29 32 33 34 34 36 41 40 40 36 33 35 33 29 30 29 29 27 26 27 26 25 25 24 22 24 21 20
29 26 24 21 19 17 17 16 15 14 14 13 13 15 19 26 31 37 36 35 34 34 37 37 37 36 34 32 27 28 28 26 24 25 27 24 20 19 20 19 18 19 21
Wind_Direction
262 241 244 281 301 312 318 320 323 325 325 323 321 318 310 302 296 291 291 289 284 279 275 273 274 272 271 272 265 256 247 253 249 256 249 241 240 245 240 232 232 225 219
268 256 257 271 283 291 306 317 322 327 326 324 322 324 323 320 314 301 289 286 286 284 283 280 277 276 276 273 270 265 261 254 260 247 245 239 237 236 235 229 226 218 218
245 241 237 241 242 258 288 300 303 310 314 317 318 320 322 323 321 314 304 292 290 291 290 287 287 288 288 282 274 272 265 263 254 257 251 253 245 234 229 224 221 211 203
244 245 246 227 222 239 258 274 290 305 306 306 307 316 324 328 331 327 319 315 310 304 303 310 306 309 316 302 290 277 265 258 256 249 255 247 236 231 223 214 204 201 189
250 258 254 237 226 237 246 261 284 294 296 297 299 309 318 328 330 332 325 314 308 301 289 288 285 269 273 314 326 294 274 263 255 249 243 245 228 210 203 202 193 175 172
243 258 269 263 242 242 262 280 308 306 299 300 289 295 310 325 331 335 344 348 333 314 298 292 285 279 284 307 326 316 290 270 256 257 244 229 208 189 184 182 169 166 160
238 247 263 259 253 264 280 304 306 307 307 298 285 293 290 304 320 349 15 1 352 338 339 335 334 321 279 301 308 347 320 276 234 217 203 185 174 182 176 172 173 174 177
236 245 260 264 262 253 270 290 294 296 312 301 281 289 288 272 293 306 330 349 344 335 347 339 334 13 352 282 290 296 326 84 121 136 133 133 149 151 155 156 166 171 148
233 245 260 269 251 242 260 261 279 292 309 299 291 300 290 272 264 286 302 323 336 315 314 335 351 60 87 56 71 134 113 105 123 121 129 134 132 135 135 131 139 146 160
231 239 252 256 239 239 247 252 270 292 304 284 302 292 287 280 267 275 282 311 336 325 27 55 34 30 46 54 55 60 72 107 111 116 114 113 121 135 151 160 168 146 175
233 237 244 239 231 233 228 243 267 281 258 247 284 300 290 277 250 264 261 290 315 259 85 49 57 39 35 39 26 59 112 63 70 97 84 115 92 111 111 118 140 186 256
232 238 241 233 223 221 218 224 230 191 190 211 274 338 8 264 270 263 257 267 301 189 163 168 346 67 77 40 59 11 34 2 20 31 41 57 58 110 194 213 257 256 264
231 238 235 236 217 211 211 205 204 212 227 244 254 287 320 346 256 254 231 251 257 192 188 211 183 139 105 202 230 293 312 314 307 308 297 270 242 240 237 240 247 257 259
234 235 228 231 216 213 214 219 225 233 231 240 244 240 198 147 128 125 119 118 124 153 183 272 302 313 313 311 298 287 286 279 283 284 278 268 257 258 256 252 252 249 250
230 225 228 225 219 220 222 224 228 234 239 238 244 244 243 243 264 257 265 272 286 287 294 288 296 298 293 296 293 287 278 281 282 282 280 284 270 258 257 248 244 237 257
229 224 229 228 221 221 226 225 228 231 230 230 236 237 239 246 242 258 267 271 272 269 270 277 280 280 280 281 262 273 296 306 312 317 323 311 287 237 249 250 251 253 259
233 233 233 229 225 220 222 226 228 233 233 232 237 243 244 246 252 263 275 279 262 260 259 272 278 280 275 261 255 265 266 264 280 288 293 292 286 275 270 268 269 269 270
236 236 237 242 234 228 227 230 237 241 237 237 237 245 251 255 252 246 255 263 263 258 264 269 275 278 275 265 259 260 257 247 244 253 263 270 281 284 282 281 281 281 282
238 235 237 240 241 235 234 233 235 244 244 240 245 250 251 256 255 251 249 251 254 263 267 269 270 271 270 265 260 256 256 254 251 253 257 266 274 283 281 282 280 275 277
238 241 239 236 244 238 237 237 239 246 248 243 248 249 249 252 255 255 248 249 255 261 266 267 270 270 268 266 264 266 267 265 267 265 265 271 278 285 283 282 277 273 269
239 243 241 236 241 245 241 241 241 245 247 246 250 253 259 264 265 254 254 253 255 263 271 274 270 268 269 269 265 265 263 260 258 267 276 278 282 285 281 272 267 261 263
242 246 247 242 240 242 242 244 247 248 252 258 259 258 258 261 264 265 260 260 262 262 262 266 273 274 273 271 270 271 267 260 257 262 270 276 284 285 272 260 260 261 268
236 227 224 229 234 236 239 246 250 252 255 258 262 267 266 264 264 263 264 265 267 268 267 265 265 269 274 274 271 268 271 271 275 274 266 269 275 274 261 259 264 271 292
50 67 95 123 181 207 217 226 232 236 241 243 248 250 254 259 262 261 263 266 266 268 268 269 266 264 269 271 270 267 269 270 271 270 267 266 264 258 253 257 271 285 289
64 63 60 52 35 24 15 16 354 328 289 270 268 259 263 257 256 260 263 264 268 263 265 263 263 254 261 268 266 268 269 263 270 270 266 254 249 246 250 266 280 290 283
65 63 62 58 53 48 43 38 32 21 10 359 331 297 289 274 268 265 263 264 254 262 258 255 255 251 252 256 258 261 258 259 259 256 247 239 244 260 273 282 289 278 275